Benson, United Kingdom

8:08 AM BST on September 20, 2017 (GMT +0100)
Benson Air Base

Weather History for EGUB - January, 2013

Change the Weather History Date:

Friday, January 4, 2013

  Actual Average Record
Temperature  
Mean Temperature 46 °F -  
Max Temperature 49 °F 44 °F 55 °F (1999)
Min Temperature 42 °F 34 °F 15 °F (2009)
Degree Days  
Heating Degree Days 20    
Moisture  
Dew Point 45 °F    
Average Humidity 88    
Maximum Humidity 100    
Minimum Humidity 74    
Precipitation  
Precipitation 0.00 in - - ()
Sea Level Pressure  
Sea Level Pressure 30.63 in    
Wind  
Wind Speed 7 mph ()    
Max Wind Speed 10 mph    
Max Gust Speed -    
Visibility 7.2 miles    
Events      
Averages and records for this station are not official NWS values.
T = Trace of Precipitation, MM = Missing Value Source: Averaged Metar Reports

Daily Weather History Graph

Daily Weather History Graph

Search for Another Location

Airport or City:

Trip Planner

Search our weather history database for the weather conditions in past years. The results will help you decide how hot, cold, wet, or windy it might be!

Date:

Astronomy

Jan. 04, 2013 Rise Set
Actual Time 8:09 AM GMT 4:09 PM GMT
Civil Twilight 7:30 AM GMT 4:48 PM GMT
Nautical Twilight 6:47 AM GMT 5:31 PM GMT
Astronomical Twilight 6:06 AM GMT 6:12 PM GMT
Moon No Moon Rise 10:51 AM GMT (1/4)
Length of Visible Light 9h 18m
Length of Day
7h 59m
Waning Gibbous, 57% of the Moon is Illuminated
Jan 4
Waning Gibbous
Jan 5
Last Quarter
Jan 11
New
Jan 18
First Quarter
Jan 27
Full

Hourly Weather History & Observations

Time (GMT) Temp. Windchill Dew Point Humidity Pressure Visibility Wind Dir Wind Speed Gust Speed Precip Events Conditions
12:50 AM 50.0 °F - 44.6 °F 82% 30.60 in 6.2 mi WSW 6.9 mph - N/A   Overcast
1:50 AM 50.0 °F - 44.6 °F 82% 30.60 in 6.2 mi WSW 8.1 mph - N/A   Overcast
2:50 AM 49 °F - 45 °F 81% 30.63 in 19 mi WSW 8.1 mph - -   Overcast
2:50 AM 50.0 °F - 44.6 °F 82% 30.63 in 6.2 mi WSW 8.1 mph - N/A   Overcast
3:50 AM 48.2 °F - 44.6 °F 87% 30.63 in 6.2 mi WSW 6.9 mph - N/A   Overcast
4:50 AM 48.2 °F - 44.6 °F 87% 30.63 in 6.2 mi WSW 6.9 mph - N/A   Overcast
5:50 AM 49 °F - 43 °F 74% 30.64 in 19 mi WSW 6.9 mph - -   Overcast
5:50 AM 48.2 °F - 42.8 °F 82% 30.63 in 6.2 mi WSW 6.9 mph - N/A   Overcast
6:50 AM 48.2 °F - 42.8 °F 82% 30.63 in 6.2 mi West 10.4 mph - N/A   Overcast
7:50 AM 46.4 °F 43.5 °F 42.8 °F 87% 30.63 in 6.2 mi WSW 5.8 mph - N/A   Mostly Cloudy
8:50 AM 42.8 °F 40.1 °F 41.0 °F 93% 30.63 in 6.2 mi South 4.6 mph - N/A   Scattered Clouds
9:50 AM 44.6 °F 41.4 °F 41.0 °F 87% 30.66 in 6.2 mi SSW 5.8 mph - N/A   Partly Cloudy
10:50 AM 48.2 °F - 44.6 °F 87% 30.66 in 6.2 mi SW 5.8 mph - N/A   Mostly Cloudy
11:50 AM 49 °F - 46 °F 83% 30.66 in 10 mi West 5.8 mph - -   Overcast
11:50 AM 48.2 °F - 46.4 °F 93% 30.66 in 6.2 mi West 5.8 mph - N/A   Overcast
12:50 PM 50.0 °F - 46.4 °F 87% 30.63 in 6.2 mi WSW 6.9 mph - N/A   Overcast
1:50 PM 50.0 °F - 46.4 °F 87% 30.63 in 6.2 mi West 8.1 mph - N/A   Overcast
2:50 PM 49 °F - 46 °F 87% 30.63 in 12 mi West 6.9 mph - -   Overcast
2:50 PM 50.0 °F - 46.4 °F 87% 30.63 in 6.2 mi West 6.9 mph - N/A   Overcast
3:50 PM 48.2 °F - 46.4 °F 93% 30.63 in 6.2 mi West 8.1 mph - N/A   Overcast
4:50 PM 48.2 °F - 46.4 °F 93% 30.63 in 6.2 mi West 8.1 mph - N/A   Overcast
5:50 PM 48 °F - 46 °F 90% 30.63 in 6 mi WSW 10.4 mph - -   Overcast
5:50 PM 48.2 °F - 46.4 °F 93% 30.63 in 5.6 mi WSW 10.4 mph - N/A   Overcast
6:50 PM 46.4 °F 42.4 °F 46.4 °F 100% 30.63 in 5.6 mi WSW 8.1 mph - N/A   Overcast
7:50 PM 46.4 °F 42.9 °F 44.6 °F 93% 30.63 in 5.6 mi WSW 6.9 mph - N/A   Overcast
8:50 PM 47 °F - 45 °F 88% 30.63 in 6 mi WSW 6.9 mph - -   Overcast
8:50 PM 46.4 °F 42.9 °F 44.6 °F 93% 30.63 in 6.2 mi WSW 6.9 mph - N/A   Overcast
9:50 PM 46.4 °F 43.5 °F 44.6 °F 93% 30.60 in 5.6 mi WSW 5.8 mph - N/A   Overcast
10:50 PM 46.4 °F 42.9 °F 44.6 °F 93% 30.60 in 4.3 mi SW 6.9 mph - N/A   Overcast
11:50 PM 47 °F - 45 °F 92% 30.62 in 6 mi SW 6.9 mph - -   Overcast
11:50 PM 46.4 °F 42.9 °F 44.6 °F 93% 30.60 in 6.2 mi SW 6.9 mph - N/A   Overcast